Вернуться в каталог

DELTA 1 DEB

АктивенSSO
NORAD 12183·DEBRIS·🇺🇸 United States

Запущен Mar 5, 1978 с Vandenberg Space Force Base

Loading…

Ближайшие Пролёты (ближайшие 24 часа)

TLE

СвежийSource: Space-Track

Эпоха: Sep 14, 2026, 08:32 UTC

1 12183U 78026Y   26257.35585160  .00000206  00000-0  12756-3 0  9995
2 12183  98.9428 292.1415 0035026 271.1234 101.0103 14.15714908348873

Отслеживайте DELTA 1 DEB в реальном времени с AllMySat

Download on the App Store